Showing default

JILIN-01 GAOFEN 3D 31, 52448

Orbit data source: Space-Track

JILIN-01 GAOFEN 3D 31, 52448 is a payload satellite owned by Changguang WJ (CN) in SSO that was launched on Thu, 05 May 2022 UTC via a CHANG ZHENG 2D launch vehicle from the Taiyaun Space Center, China (TSC). Payload-class satellites include a variety of spacecraft equipped with specific instruments for various scientific and technological missions. These include communications satellites like Starlink; space stations such as the ISS; scientific satellites like the Hubble; Earth observation satellites from companies like Planet Labs, Umbra, and HawkEye 360; GPS; miniature CubeSats for education and research; and military/defense satellites.

Loading next visibility...
Identifier
52448, 2022-048F
Orbit
SSO
Last TLE update
4 hours ago
Origin
Manufacturer
Changguang WJ
Mission
Operational Commercial Imaging
Bus & Motor
JL-1, Unknown motor
Mass
42 kg wet, 42 kg dry
Launch date (UTC)
2022-05-05 (3 years ago)
Launch vehicle
CHANG ZHENG 2D
Launch site
Taiyaun Space Center, China (TSC)
Object type
Payload
Rocket body
Debris
Shape & HBR
Box + 2 Pan, 1.5 m
Radar Cross Section
2.000 m², Medium (>0.1 m² and < 1m²)

Expand to show TLE details & history

TLE from 4 hours ago
0 JILIN-01 GAOFEN 3D 31
1 52448U 22048F   25186.24848403  .00019381  00000-0  52565-3 0  9992
2 52448  97.5712 277.3985 0002906 256.7172 103.3748 15.37665787175727
Epoch: 2025-07-05T05:57Z
TLE epoch observation values (Epoch: 2025-07-05T05:57:49.02Z)
Latitude
-0.00003°
Longitude
-95.545°
Altitude
456.583 km
Speed
7.638 km/s
True Right ascension
18h 29m 35s
True Declination
0° 00' 00"
Sunlit
Object was in full shadow at epoch
Visualization orbit readout
Latitude
-60.32152°
Longitude
71.22259°
Altitude
474.366 km
Speed
7.628 km/s
Apparent Right ascension
08h 16m 18s
Apparent Declination
-55° 01' 57"
Sunlit
Object is in daylight
Visualization observer readout
Local Sidereal Time
22:02:06
Azimuth
139.536° SSE
Elevation
-66.836°
Doppler factor
1
Orbital elements
Apogee altitude
451.948 km
Perigee altitude
447.979 km
Semi-major axis
6,828.1 km
Eccentricity
0.00029
Inclination
97.5712°
RAAN
277.3985°
Arg. of periapsis
256.7172°
True anomaly
Unknown
Mean anomaly
103.3748°
Eccentric anomaly
Unknown
Mean motion
3.84674 °/min
Orbital period
93.59 mins
BSTAR
0.00052565
Loading maneuver chart data...
Loading SW <> Apogee altitude chart data...
Loading historical data...
Loading historical data...
Loading historical data...
Loading historical data...
Loading historical data...
Loading historical data...
Loading historical data...

JILIN-01 GAOFEN 3D 31 Visibility forecast

Observer location: undefined°, undefined°

Span
Click to sort rows by Start time (UTC) header in descending order
Start Az.
Max El. time (UTC)
Max El. Az.
Max El.
End time (UTC)
End Az.
6 mins2025-07-05 19:00:56.640Z10.479° NNE2025-07-05 19:03:56.640Z228.296° WSW44.535°2025-07-05 19:06:56.640Z195.322° SSW
4 mins2025-07-06 05:32:56.640Z111.06° ESE2025-07-06 05:33:56.640Z85.871° E23.504°2025-07-06 05:36:56.640Z16° NNE
|